Regional Weather Roundup
Issued by NWS

Home | Current Version | Previous Version | Text Only | Print | Product List | Glossary On
Versions: 1 2 3 4 5 6 7 8 9 10 11 12 13 14 15 16 17 18 19 20 21 22 23 24 25 26 27 28 29 30 31 32 33 34 35 36 37 38 39 40 41 42 43 44 45 46 47 48 49 50
000
ASUS45 KREV 301510
RWRNV
NEVADA REGIONAL WEATHER ROUNDUP
NATIONAL WEATHER SERVICE RENO NV
800 AM PDT SAT MAY 30 2015

NOTE: "FAIR" INDICATES FEW OR NO CLOUDS BELOW 12,000 FEET WITH NO
SIGNIFICANT WEATHER AND/OR OBSTRUCTIONS TO VISIBILITY.

NVZ001-003-004-301600-
WESTERN NEVADA

CITY           SKY/WX    TMP DP  RH WIND       PRES   REMARKS
RENO           PTSUNNY   64  37  36 CALM      30.07S
CARSON CITY    FAIR      63  34  34 CALM      30.09S
MINDEN         FAIR      63  36  36 CALM      30.09
SLIDE MTN        N/A     50  21  32 W23         N/A
PYRAMID LAKE     N/A     72 N/A N/A CALM        N/A
FALLON         PTSUNNY   68  38  33 S3        30.04R
LOVELOCK       PTSUNNY   63  47  55 CALM      30.03R
HAWTHORNE      SUNNY     68  43  40 CALM      30.06R
$$

NVZ002-CAZ072-073-301600-
NORTHERN AND CENTRAL SIERRA

CITY           SKY/WX    TMP DP  RH WIND       PRES   REMARKS
S. LAKE TAHOE  MOSUNNY   58  37  45 CALM      30.17R
TRUCKEE        MOSUNNY   50  39  66 CALM      30.16S
SQUAW VLY 8000   N/A     54  21  28 S12         N/A
BLUE CANYON    MOSUNNY   62  34  35 SE3       30.13R
MAMMOTH LAKES  FAIR      57  27  30 CALM      30.24S
BRIDGEPORT     FAIR      50  28  42 CALM      30.20S
$$

NVZ030-031-036-301600-
NORTHERN NEVADA

CITY           SKY/WX    TMP DP  RH WIND       PRES   REMARKS
ELKO           SUNNY     64  46  52 NE5       30.10R
WINNEMUCCA     MOSUNNY   65  46  50 S5        30.05R
WENDOVER       MOSUNNY   64  46  52 SE6       30.10S
$$

NVZ035-037-301600-
CENTRAL NEVADA

CITY           SKY/WX    TMP DP  RH WIND       PRES   REMARKS
ELY            PTSUNNY   64  38  38 S14       30.20R
EUREKA           N/A     68  36  30 SW5       30.13S
$$

NVZ013-014-301600-
SOUTH CENTRAL NEVADA

CITY           SKY/WX    TMP DP  RH WIND       PRES   REMARKS
TONOPAH        MOSUNNY   70  25  18 E3        30.14R
$$

NVZ017-020-022-301600-
SOUTHERN NEVADA

CITY           SKY/WX    TMP DP  RH WIND       PRES   REMARKS
LAS VEGAS      MOSUNNY   83  24  11 S6        29.95R
N. LAS VEGAS   SUNNY     83  21  10 SE5       29.98R
NELLIS AFB     SUNNY     86  30  13 E8        29.96R
HENDERSON      SUNNY     82  29  14 S3        30.01R
MERCURY        NOT AVBL
$$


USA.gov is the U.S. government's official web portal to all federal, state and local government web resources and services.